318  
ASCA42 TJSJ 201410  
RWRPR  
PUERTO RICO/U.S. VIRGIN ISLANDS HOURLY WEATHER ROUNDUP  
NATIONAL WEATHER SERVICE SAN JUAN PR  
1000 AM AST SUN OCT 20 2019  
 
PRZ001>002-007>008-010-201500-  
PUERTO RICO  
 
CITY SKY/WX TMP DP RH WIND PRES REMARKS
 
SAN JUAN LMM MOSUNNY 84 75 74 SE8 30.02R HX 92  
AGUADILLA MOSUNNY 84 75 74 E13 30.03S HX 92  
CEIBA SUNNY 88 77 70 NE9 30.03S HX 100  

 
 
VIZ001>002-201500-  
U.S. VIRGIN ISLANDS  
 
CITY SKY/WX TMP DP RH WIND PRES REMARKS
 
CHARLOTTE AMA MOSUNNY 86 73 66 NE12 30.01S HX 93  
CHRISTIANSTED MOSUNNY 90 73 58 E16 30.01S HX 98  

 
 
HOURLY WEATHER ROUNDUP FOR THE NEWS MEDIA  
 
CITY SKY/WX TMP DP RH WIND PRES REMARKS
 
ORLANDO FAIR 80 73 79 W10 29.93R  
NEW YORK CLOUDY 54 50 86 E7 30.06F  
NEWARK CLOUDY 51 46 83 NE5 30.05F  
CHICAGO PTSUNNY 49 46 90 NW9 29.91R  
HARTFORD FAIR 50 45 83 CALM 30.09R  
BOSTON PTSUNNY 54 43 66 CALM 30.10R  
DALLAS SUNNY 63 56 78 CALM 29.82R  
PHILADELPHIA LGT RAIN 54 48 80 NE6 30.02F  
LOS ANGELES PTCLDY 60 56 86 E3 29.88R  
WASHINGTON DC RAIN 53 51 93 N8 29.97F FOG  
 
CLICK HERE TO GO TO PREVIOUS BULLETINS.

The Nexlab PR Page Main Text Page